Vorticity
11 73 42 19 6 47 92 43 52 43 40 26 -5 24 13 9 10 21 10 9 10 5 5 6 7 0 8 5 12 20 37 16 6 10 26 28 18 6 8 3 7 3 5 7 2 -0 3 7 11 23 14 35 30 28
14 5 0 -30 33 14 38 75 40 31 21 28 25 -2 20 14 8 19 12 2 4 3 6 4 2 -6 -4 19 19 9 11 20 19 28 22 9 7 10 8 7 8 6 7 5 6 6 9 9 20 29 32 36 23 -6
-3 10 17 13 47 34 50 39 59 47 28 30 28 13 25 16 13 20 13 3 7 3 4 -1 6 7 42 -21 15 26 32 16 13 11 9 7 8 5 6 5 7 6 3 7 8 15 12 22 23 22 18 13 -3 -12
-1 47 14 -2 15 2 5 50 50 43 28 21 13 14 15 15 12 18 12 9 12 4 2 27 34 37 28 30 16 13 4 8 10 12 16 13 9 7 2 3 3 10 13 15 -3 38 10 31 14 15 28 24 8 30
29 31 22 -18 16 26 18 3 45 30 27 25 22 26 24 27 30 0 12 20 1 8 10 14 10 27 18 10 6 2 5 9 13 9 4 3 3 2 -0 -2 8 29 21 10 7 24 16 40 29 23 17 14 15 22
15 34 45 20 10 25 39 32 -5 -21 11 -2 14 12 5 21 4 7 15 6 38 32 26 24 24 8 -2 -3 4 8 8 5 3 1 3 4 2 2 0 3 46 18 20 15 23 29 22 18 13 28 35 26 20 28
3 6 12 16 22 18 14 28 37 45 30 24 27 19 23 34 30 28 15 24 22 18 15 13 10 7 9 11 9 6 2 2 3 3 4 6 11 0 5 43 26 9 27 9 12 15 10 15 12 5 21 19 24 23
6 2 4 4 6 5 7 9 12 14 15 15 18 18 16 11 15 17 15 17 13 7 8 9 13 11 7 6 3 3 4 3 1 1 11 12 8 9 35 36 11 7 19 16 4 5 14 12 16 10 8 13 25 26
8 13 14 10 6 3 11 6 3 -1 3 7 7 11 9 10 12 11 12 10 9 8 6 3 2 5 4 2 2 3 6 11 9 14 22 16 21 37 27 20 8 12 12 10 8 20 17 19 31 22 10 12 14 17
-1 5 10 6 1 0 4 6 7 7 8 8 6 4 5 9 7 8 6 5 6 3 4 3 3 11 15 14 11 22 17 14 22 25 29 35 30 18 18 13 7 20 20 17 16 21 34 24 7 13 13 13 13 13
14 13 11 8 10 14 12 7 2 4 8 8 9 9 7 8 7 5 5 4 5 8 7 8 9 9 9 15 22 29 31 43 45 37 48 46 21 22 12 10 3 14 16 5 17 4 -4 15 9 16 16 11 6 9
4 5 6 7 8 9 9 8 11 12 8 4 4 4 1 -2 -2 2 4 3 0 5 10 11 16 36 45 31 32 20 11 8 8 14 14 17 16 22 19 10 1 -6 28 13 7 11 15 13 14 10 7 7 8 11
2 -1 1 5 4 6 5 6 7 3 0 5 3 5 2 -3 4 8 8 13 14 32 46 51 15 17 28 21 5 6 6 5 8 14 15 13 15 16 22 22 5 11 15 16 7 7 11 14 12 10 8 6 14 12
10 13 10 10 8 7 11 9 8 11 7 4 -0 2 2 7 8 12 18 17 46 25 12 -5 5 8 14 4 2 -1 -3 3 13 12 19 16 23 13 7 9 11 6 11 3 -4 -6 8 3 -6 -2 5 9 7 8
18 13 11 9 7 5 7 3 9 11 7 8 7 6 20 25 35 35 56 24 12 10 5 7 7 7 9 12 10 9 14 7 10 16 11 24 -8 0 6 8 14 2 5 10 1 -2 5 6 2 1 1 5 8 11
30 26 20 17 17 17 13 11 15 12 14 13 27 35 21 31 34 32 0 0 12 -0 7 6 8 4 5 8 4 6 6 2 -0 3 15 17 -15 -6 14 0 14 1 5 7 11 4 1 -2 -1 0 -1 3 10 4
46 38 29 26 24 22 20 15 13 14 20 28 31 36 31 16 3 -2 1 1 3 3 4 3 -0 2 0 1 3 7 4 -1 3 6 6 4 8 9 8 6 5 1 4 8 4 5 1 3 -0 3 3 1 9 8
6 9 15 27 29 30 33 34 25 27 21 13 8 10 7 7 8 10 12 4 2 0 -1 -1 0 1 2 2 2 2 4 4 4 4 5 3 0 -1 -1 -2 3 3 3 4 4 4 5 7 5 5 3 1 -2 7
12 11 12 10 12 11 11 8 7 3 5 3 3 4 3 3 3 5 5 2 2 1 3 6 8 9 14 22 27 32 36 39 37 36 35 34 34 30 30 28 23 17 11 8 5 1 1 3 2 1 1 2 2 -0
10 10 10 9 10 12 9 5 4 4 6 2 6 3 3 5 4 6 11 16 20 24 20 20 19 11 11 12 12 10 7 7 8 10 10 10 10 12 13 15 19 21 17 15 25 35 39 39 38 34 32 32 31 27
9 9 9 11 11 12 14 13 11 15 15 17 19 21 20 15 15 13 12 14 14 15 17 19 18 16 14 12 13 14 15 14 13 13 12 9 9 8 8 9 10 11 10 9 10 14 15 13 11 10 9 9 10 13
8 11 9 8 10 9 13 11 15 15 12 16 11 12 14 15 16 15 16 14 16 18 14 15 18 18 17 17 17 16 14 13 14 14 15 16 16 15 14 13 14 14 14 14 13 13 13 13 13 12 11 12 11 12
10 7 10 8 10 11 11 8 11 10 10 12 14 15 16 17 14 16 16 18 16 15 16 15 14 14 14 14 13 14 15 14 13 13 13 13 13 13 13 14 15 15 18 20 18 17 16 16 17 17 17 17 18 20
9 10 7 9 6 6 7 9 8 11 12 13 12 13 12 12 12 13 14 12 12 11 12 10 11 12 12 11 11 12 13 13 12 11 15 15 15 16 19 20 19 18 19 19 16 15 14 13 14 16 19 22 21 22
13 4 14 11 12 9 8 7 6 6 7 7 8 8 10 10 12 9 8 8 7 7 8 7 8 9 10 8 10 11 14 14 15 14 15 17 18 20 22 20 19 23 22 18 13 13 16 18 21 25 24 22 21 21
5 9 13 11 8 12 8 11 10 9 7 7 6 6 6 6 7 6 6 6 7 8 8 7 6 7 7 4 6 8 8 13 15 15 15 16 20 25 24 25 25 19 13 13 16 17 24 29 31 28 25 20 19 18
2 2 3 12 13 12 10 9 11 10 10 10 6 5 4 6 5 4 5 5 6 6 7 7 7 7 4 3 4 4 6 12 15 14 15 19 24 26 27 26 16 12 15 14 20 27 31 37 31 22 20 20 19 17
5 6 8 6 10 13 12 11 11 11 11 10 9 7 10 6 4 5 4 5 5 5 6 6 7 7 8 5 4 3 5 11 14 14 16 21 28 30 28 16 11 16 13 21 27 27 38 35 27 21 25 17 16 17
8 8 10 10 11 11 11 13 14 11 10 12 12 11 9 9 7 8 6 6 6 6 7 7 7 7 9 7 5 4 5 11 14 14 17 22 31 32 21 12 14 13 15 26 24 33 35 28 23 20 24 17 23 17
12 10 10 9 10 11 11 12 13 12 12 12 13 14 14 13 12 10 9 10 9 8 8 8 8 9 9 8 7 4 6 11 14 15 17 25 32 35 15 12 16 11 18 25 25 30 29 21 16 15 18 18 13 26
11 10 11 11 10 9 11 13 12 12 10 13 13 15 14 15 15 12 13 15 11 10 10 10 9 8 9 9 7 5 7 9 15 14 18 27 35 31 14 14 16 11 19 15 24 24 23 20 16 14 16 19 22 13
9 10 10 11 10 10 11 12 12 14 12 13 11 14 15 15 15 17 14 14 14 13 11 10 9 9 10 10 7 5 6 12 14 14 18 29 35 30 14 15 16 15 13 21 13 19 22 21 17 16 16 14 17 13
8 7 8 11 10 10 11 14 12 12 13 11 12 13 15 15 16 15 15 15 13 11 11 11 12 13 12 9 5 4 6 12 14 15 19 29 34 32 15 15 16 16 13 16 24 17 18 19 20 16 18 16 13 12
Height
5284 5288 5289 5291 5291 5290 5294 5309 5334 5359 5382 5407 5430 5448 5461 5474 5484 5495 5498 5511 5522 5523 5525 5532 5536 5536 5537 5537 5537 5538 5538 5536 5537 5538 5539 5541 5542 5541 5542 5542 5540 5538 5534 5534 5530 5527 5523 5523 5518 5514 5507 5503 5500 5499
5275 5281 5283 5281 5280 5281 5282 5288 5305 5329 5359 5384 5407 5428 5441 5459 5470 5479 5487 5498 5509 5514 5515 5518 5518 5519 5519 5521 5524 5523 5525 5525 5524 5525 5528 5529 5531 5529 5530 5530 5529 5528 5524 5520 5518 5521 5508 5502 5499 5493 5490 5491 5489 5489
5279 5280 5281 5279 5279 5279 5279 5283 5297 5322 5348 5372 5392 5415 5432 5441 5453 5466 5478 5485 5494 5500 5504 5503 5503 5504 5505 5510 5512 5513 5512 5513 5514 5516 5517 5518 5516 5518 5518 5519 5517 5513 5506 5506 5501 5508 5490 5487 5480 5479 5478 5477 5478 5479
5288 5288 5288 5289 5289 5289 5286 5294 5312 5333 5352 5371 5389 5406 5420 5431 5441 5452 5464 5473 5480 5487 5490 5488 5489 5492 5495 5498 5500 5501 5503 5503 5502 5503 5504 5505 5506 5506 5508 5506 5504 5500 5490 5487 5482 5483 5473 5474 5468 5467 5466 5466 5468 5467
5295 5294 5301 5305 5306 5305 5303 5312 5328 5343 5358 5371 5386 5398 5412 5424 5433 5443 5452 5460 5467 5473 5475 5477 5479 5482 5485 5487 5489 5490 5490 5491 5491 5494 5496 5496 5495 5492 5493 5492 5493 5479 5475 5466 5466 5462 5460 5465 5457 5453 5453 5452 5452 5454
5308 5309 5314 5318 5321 5324 5328 5331 5338 5350 5362 5374 5386 5397 5409 5419 5428 5435 5444 5451 5456 5460 5465 5468 5470 5473 5475 5477 5478 5479 5481 5483 5485 5485 5484 5483 5480 5477 5478 5478 5476 5459 5455 5450 5455 5453 5451 5451 5449 5445 5442 5441 5441 5442
5322 5324 5327 5331 5335 5339 5344 5350 5356 5363 5372 5380 5388 5395 5404 5413 5422 5430 5436 5443 5449 5453 5457 5460 5461 5464 5466 5468 5470 5472 5472 5472 5473 5472 5471 5468 5464 5462 5464 5465 5452 5448 5445 5444 5444 5444 5444 5442 5440 5437 5434 5432 5432 5432
5333 5336 5338 5342 5346 5350 5355 5361 5367 5374 5381 5387 5394 5401 5409 5414 5421 5427 5432 5437 5441 5446 5450 5452 5455 5458 5458 5459 5460 5460 5460 5459 5459 5458 5458 5453 5452 5447 5449 5446 5442 5440 5439 5439 5438 5436 5435 5433 5432 5431 5429 5428 5426 5426
5341 5343 5347 5351 5355 5359 5363 5368 5373 5379 5385 5390 5395 5401 5407 5413 5418 5423 5428 5431 5435 5441 5443 5446 5448 5448 5448 5449 5450 5451 5449 5447 5446 5445 5440 5435 5435 5435 5433 5434 5435 5434 5433 5433 5432 5430 5428 5426 5425 5425 5424 5423 5423 5422
5348 5351 5354 5358 5361 5365 5369 5373 5378 5382 5387 5391 5397 5403 5408 5413 5417 5422 5426 5430 5433 5435 5438 5439 5441 5441 5442 5440 5438 5438 5433 5430 5426 5425 5420 5419 5423 5424 5425 5427 5428 5428 5426 5425 5425 5425 5422 5421 5421 5420 5419 5418 5418 5419
5351 5354 5357 5361 5365 5369 5373 5377 5381 5386 5389 5394 5398 5402 5407 5410 5414 5417 5420 5424 5425 5426 5427 5427 5427 5426 5424 5424 5423 5421 5418 5417 5415 5412 5409 5410 5415 5415 5417 5419 5421 5420 5419 5420 5420 5420 5419 5418 5417 5415 5415 5414 5414 5413
5353 5356 5359 5362 5365 5369 5372 5376 5379 5384 5387 5391 5395 5398 5401 5405 5408 5411 5412 5414 5415 5416 5416 5416 5416 5415 5414 5414 5413 5413 5413 5412 5411 5409 5408 5408 5408 5409 5411 5413 5415 5416 5416 5415 5415 5415 5414 5413 5413 5412 5411 5410 5408 5407
5353 5355 5358 5361 5364 5367 5370 5373 5376 5380 5384 5388 5391 5394 5397 5399 5401 5403 5403 5404 5405 5403 5405 5405 5407 5408 5408 5409 5410 5411 5410 5410 5408 5407 5405 5405 5404 5405 5407 5409 5411 5411 5411 5411 5410 5410 5409 5409 5408 5408 5406 5405 5403 5402
5351 5354 5357 5360 5363 5366 5369 5373 5377 5379 5381 5383 5386 5388 5391 5392 5393 5394 5395 5395 5398 5399 5402 5404 5406 5406 5407 5409 5409 5409 5408 5408 5406 5404 5403 5402 5402 5403 5404 5405 5406 5406 5406 5406 5405 5405 5404 5404 5402 5402 5401 5399 5398 5396
5348 5352 5356 5359 5362 5365 5368 5370 5372 5375 5376 5379 5382 5383 5385 5386 5387 5389 5391 5394 5397 5400 5402 5404 5405 5406 5406 5407 5406 5406 5405 5404 5402 5401 5400 5399 5399 5399 5399 5399 5399 5399 5399 5399 5398 5397 5397 5396 5395 5394 5393 5392 5391 5389
5347 5351 5354 5357 5361 5364 5366 5368 5370 5372 5373 5376 5378 5380 5381 5383 5385 5389 5392 5395 5398 5400 5402 5403 5404 5405 5405 5404 5404 5402 5401 5400 5399 5398 5398 5397 5395 5394 5394 5393 5392 5392 5391 5390 5389 5389 5387 5387 5386 5385 5384 5383 5382 5381
5351 5352 5354 5356 5360 5362 5365 5367 5370 5371 5373 5375 5376 5378 5381 5385 5388 5391 5394 5396 5397 5399 5400 5401 5401 5400 5400 5399 5398 5397 5396 5395 5393 5392 5391 5390 5388 5387 5385 5384 5382 5381 5380 5378 5377 5376 5375 5375 5373 5372 5372 5371 5371 5370
5361 5361 5362 5362 5363 5365 5368 5370 5372 5373 5375 5377 5380 5383 5385 5388 5390 5392 5394 5395 5396 5396 5396 5396 5395 5394 5393 5392 5390 5389 5386 5385 5384 5382 5380 5379 5377 5375 5373 5371 5369 5367 5366 5364 5362 5361 5360 5359 5358 5357 5357 5357 5356 5356
5372 5371 5371 5371 5372 5373 5374 5376 5377 5379 5380 5382 5384 5385 5387 5389 5390 5391 5392 5392 5392 5391 5391 5390 5388 5387 5384 5382 5380 5377 5374 5372 5370 5367 5365 5363 5361 5359 5356 5354 5352 5350 5349 5347 5345 5344 5343 5341 5341 5340 5340 5340 5339 5339
5377 5376 5376 5376 5376 5377 5378 5379 5380 5381 5382 5384 5384 5384 5385 5386 5387 5387 5387 5387 5385 5384 5383 5381 5380 5377 5375 5374 5371 5368 5365 5363 5360 5358 5354 5350 5347 5345 5342 5339 5337 5334 5331 5329 5327 5325 5324 5323 5321 5322 5321 5321 5320 5320
5380 5379 5379 5379 5378 5378 5379 5379 5380 5380 5380 5381 5382 5382 5382 5381 5381 5381 5380 5379 5379 5378 5376 5375 5373 5370 5368 5365 5363 5360 5357 5353 5350 5347 5345 5342 5336 5332 5329 5325 5322 5319 5316 5314 5312 5310 5308 5307 5306 5306 5305 5305 5304 5303
5382 5381 5381 5380 5380 5379 5379 5379 5380 5380 5380 5379 5379 5379 5379 5379 5378 5377 5376 5375 5374 5372 5370 5368 5366 5364 5362 5359 5355 5352 5348 5344 5340 5336 5332 5328 5324 5319 5315 5310 5307 5304 5300 5297 5296 5295 5293 5291 5290 5289 5288 5288 5288 5287
5385 5384 5383 5382 5381 5380 5381 5379 5379 5378 5378 5378 5377 5377 5376 5375 5375 5374 5372 5371 5369 5368 5366 5363 5361 5358 5354 5351 5348 5344 5340 5335 5330 5325 5320 5314 5308 5303 5299 5295 5291 5288 5285 5280 5278 5277 5276 5274 5272 5271 5271 5271 5271 5271
5385 5384 5383 5382 5382 5381 5380 5379 5378 5378 5377 5377 5376 5375 5374 5373 5372 5371 5369 5367 5365 5363 5361 5358 5355 5352 5349 5345 5341 5336 5331 5325 5320 5313 5308 5302 5296 5289 5283 5279 5274 5270 5267 5265 5262 5260 5259 5257 5255 5253 5253 5254 5255 5256
5384 5384 5383 5381 5380 5380 5379 5379 5378 5377 5376 5375 5374 5373 5372 5370 5369 5367 5365 5363 5361 5358 5356 5353 5350 5346 5342 5338 5333 5328 5323 5317 5310 5303 5295 5289 5282 5275 5268 5262 5258 5255 5251 5249 5247 5245 5242 5240 5238 5237 5237 5238 5240 5242
5381 5381 5380 5378 5377 5377 5376 5376 5375 5374 5373 5372 5371 5370 5368 5366 5365 5363 5361 5359 5356 5353 5350 5347 5343 5339 5335 5331 5326 5320 5314 5307 5300 5292 5284 5276 5268 5261 5254 5249 5243 5240 5239 5236 5232 5228 5225 5222 5221 5221 5223 5226 5229 5232
5377 5377 5376 5375 5374 5373 5372 5371 5370 5370 5368 5367 5366 5364 5363 5362 5360 5358 5355 5353 5350 5347 5344 5340 5336 5332 5328 5323 5318 5312 5305 5297 5289 5281 5273 5264 5256 5248 5242 5237 5234 5231 5227 5222 5218 5213 5209 5207 5208 5210 5213 5217 5220 5224
5372 5371 5371 5371 5369 5368 5367 5366 5365 5363 5362 5361 5360 5358 5357 5355 5354 5352 5349 5346 5343 5340 5337 5333 5329 5325 5321 5315 5310 5303 5297 5289 5280 5271 5262 5253 5245 5238 5232 5229 5225 5221 5216 5211 5205 5201 5198 5198 5199 5203 5206 5210 5214 5218
5365 5365 5365 5365 5364 5363 5362 5361 5360 5358 5357 5356 5355 5352 5351 5349 5347 5345 5342 5340 5337 5334 5330 5327 5323 5318 5313 5308 5302 5296 5288 5280 5272 5263 5253 5244 5236 5230 5225 5221 5217 5213 5208 5203 5198 5194 5193 5193 5195 5198 5201 5205 5209 5213
5359 5358 5359 5359 5358 5358 5357 5356 5354 5352 5350 5349 5348 5347 5345 5342 5340 5338 5336 5334 5331 5328 5324 5320 5316 5311 5306 5301 5295 5288 5281 5273 5264 5255 5246 5237 5230 5223 5219 5215 5212 5208 5203 5199 5195 5192 5191 5192 5193 5196 5199 5202 5205 5208
5353 5353 5353 5353 5352 5351 5351 5350 5348 5346 5344 5343 5342 5341 5339 5336 5334 5331 5329 5327 5324 5321 5318 5314 5309 5305 5299 5294 5288 5281 5274 5266 5257 5248 5239 5230 5223 5218 5214 5211 5207 5204 5201 5197 5194 5192 5191 5192 5193 5195 5197 5199 5202 5206
5348 5348 5347 5347 5346 5345 5345 5344 5343 5342 5339 5338 5336 5334 5333 5330 5328 5326 5323 5320 5317 5314 5311 5307 5303 5298 5293 5287 5281 5274 5267 5258 5250 5241 5232 5225 5218 5213 5210 5207 5204 5202 5199 5196 5194 5193 5192 5192 5193 5194 5196 5198 5201 5204
5342 5342 5342 5341 5340 5339 5339 5339 5338 5337 5334 5332 5330 5329 5327 5325 5322 5320 5317 5314 5312 5308 5305 5301 5296 5291 5286 5280 5274 5268 5260 5252 5243 5235 5227 5220 5213 5209 5206 5204 5201 5199 5197 5195 5193 5192 5192 5192 5192 5194 5195 5197 5199 5202